When you browse on this site, cookies collect data to enhance your experience and personalize the content and advertising you see.
Visit our Privacy Policy to learn more. By continuing to use the site, you agree to this use of cookies and data.
  • în România
  • Lista ţărilor
  • Pe 7 zile
  • Temperatura apei
  • Hartă satelitară
  • Meteo pe hartă
  • Widget-uri
  • user-avatar
    Intrare

    Meteo pe oră la Aron

    Astăzi, 24 Aprilie, Miercuri

    Timp Temperatura Precipitaţii Vânt Presiune Umiditate
    00:00 +7°C° 0 mm 1 m/s 659 mmHg 94%
    01:00 +6°C° 0.9 mm 1 m/s 659 mmHg 94%
    02:00 +5°C° 0.9 mm 2 m/s 659 mmHg 94%
    03:00 +5°C° 0.9 mm 2 m/s 659 mmHg 93%
    04:00 +4°C° 1.1 mm 2 m/s 660 mmHg 92%
    05:00 +4°C° 1.1 mm 2 m/s 660 mmHg 92%
    06:00 +4°C° 0 mm 2 m/s 660 mmHg 91%
    07:00 +6°C° 0.3 mm 2 m/s 661 mmHg 82%
    08:00 +7°C° 0.3 mm 2 m/s 662 mmHg 74%
    09:00 +8°C° 0.3 mm 3 m/s 662 mmHg 65%
    10:00 +9°C° 0.1 mm 3 m/s 662 mmHg 59%
    11:00 +10°C° 0.1 mm 4 m/s 663 mmHg 53%
    12:00 +10°C° 0.1 mm 5 m/s 663 mmHg 47%
    13:00 +10°C° 0 mm 5 m/s 663 mmHg 47%
    14:00 +10°C° 0 mm 6 m/s 663 mmHg 48%
    15:00 +10°C° 0 mm 6 m/s 663 mmHg 49%
    16:00 +10°C° 0 mm 5 m/s 663 mmHg 54%
    17:00 +10°C° 0 mm 4 m/s 663 mmHg 60%
    18:00 +8°C° 0 mm 4 m/s 662 mmHg 65%
    19:00 +8°C° 0.1 mm 4 m/s 663 mmHg 66%
    20:00 +7°C° 0.1 mm 4 m/s 663 mmHg 67%
    21:00 +7°C° 0.1 mm 4 m/s 663 mmHg 68%
    22:00 +7°C° 0.3 mm 4 m/s 663 mmHg 69%
    23:00 +8°C° 0.3 mm 3 m/s 663 mmHg 69%

    Mâine, 25 Aprilie, Joi

    Timp Temperatura Precipitaţii Vânt Presiune Umiditate
    00:00 +7°C° 0.3 mm 3 m/s 663 mmHg 70%
    01:00 +7°C° 0.5 mm 3 m/s 663 mmHg 74%
    02:00 +7°C° 0.5 mm 2 m/s 663 mmHg 78%
    03:00 +6°C° 0.5 mm 2 m/s 663 mmHg 82%
    04:00 +6°C° 0.4 mm 2 m/s 663 mmHg 83%
    05:00 +6°C° 0.4 mm 2 m/s 663 mmHg 85%
    06:00 +7°C° 0.4 mm 2 m/s 663 mmHg 86%
    07:00 +7°C° 0.8 mm 2 m/s 664 mmHg 88%
    08:00 +7°C° 0.8 mm 2 m/s 664 mmHg 89%
    09:00 +7°C° 0.8 mm 2 m/s 665 mmHg 90%
    10:00 +9°C° 0.2 mm 2 m/s 665 mmHg 78%
    11:00 +12°C° 0.2 mm 2 m/s 666 mmHg 66%
    12:00 +13°C° 0.2 mm 3 m/s 666 mmHg 54%
    13:00 +12°C° 0.3 mm 3 m/s 666 mmHg 58%
    14:00 +11°C° 0.3 mm 3 m/s 666 mmHg 61%
    15:00 +10°C° 0.3 mm 3 m/s 666 mmHg 65%
    16:00 +9°C° 0.8 mm 2 m/s 666 mmHg 72%
    17:00 +9°C° 0.8 mm 1 m/s 666 mmHg 79%
    18:00 +8°C° 0.8 mm 1 m/s 666 mmHg 86%
    19:00 +7°C° 0.4 mm 1 m/s 667 mmHg 86%
    20:00 +5°C° 0.4 mm 2 m/s 667 mmHg 86%
    21:00 +4°C° 0.4 mm 2 m/s 668 mmHg 86%
    22:00 +3°C° 0.3 mm 2 m/s 668 mmHg 86%
    23:00 +3°C° 0.3 mm 2 m/s 668 mmHg 85%

    Poimâine, 26 Aprilie, Vineri

    Timp Temperatura Precipitaţii Vânt Presiune Umiditate
    00:00 +2°C° 0.3 mm 2 m/s 669 mmHg 85%
    01:00 +2°C° 0.1 mm 2 m/s 669 mmHg 84%
    02:00 +2°C° 0.1 mm 2 m/s 670 mmHg 84%
    03:00 +3°C° 0.1 mm 1 m/s 670 mmHg 84%
    04:00 +3°C° 0.1 mm 1 m/s 670 mmHg 83%
    05:00 +3°C° 0.1 mm 1 m/s 671 mmHg 83%
    06:00 +3°C° 0.1 mm 1 m/s 671 mmHg 83%
    07:00 +4°C° 0.1 mm 2 m/s 672 mmHg 79%
    08:00 +5°C° 0.1 mm 3 m/s 673 mmHg 74%
    09:00 +8°C° 0.1 mm 3 m/s 674 mmHg 70%
    10:00 +8°C° 0.2 mm 3 m/s 675 mmHg 69%
    11:00 +9°C° 0.2 mm 3 m/s 675 mmHg 68%
    12:00 +10°C° 0.2 mm 3 m/s 675 mmHg 67%
    13:00 +10°C° 0.1 mm 3 m/s 675 mmHg 67%
    14:00 +10°C° 0.1 mm 4 m/s 675 mmHg 68%
    15:00 +10°C° 0.1 mm 4 m/s 675 mmHg 68%
    16:00 +9°C° 0.1 mm 3 m/s 675 mmHg 74%
    17:00 +7°C° 0.1 mm 3 m/s 675 mmHg 79%
    18:00 +6°C° 0.1 mm 2 m/s 675 mmHg 84%
    19:00 +5°C° 0 mm 2 m/s 676 mmHg 88%
    20:00 +5°C° 0 mm 1 m/s 676 mmHg 92%
    21:00 +4°C° 0 mm 1 m/s 676 mmHg 96%
    22:00 +4°C° 0 mm 1 m/s 676 mmHg 95%
    23:00 +3°C° 0 mm 1 m/s 676 mmHg 93%

    27 Aprilie, Sâmbătă

    Timp Temperatura Precipitaţii Vânt Presiune Umiditate
    00:00 +3°C° 0 mm 1 m/s 676 mmHg 92%
    01:00 +3°C° 0 mm 1 m/s 676 mmHg 88%
    02:00 +3°C° 0 mm 1 m/s 676 mmHg 83%
    03:00 +2°C° 0 mm 1 m/s 676 mmHg 79%
    04:00 +3°C° 0 mm 1 m/s 676 mmHg 76%
    05:00 +4°C° 0 mm 1 m/s 676 mmHg 72%
    06:00 +4°C° 0 mm 1 m/s 676 mmHg 69%
    07:00 +5°C° 0 mm 2 m/s 677 mmHg 71%
    08:00 +7°C° 0 mm 2 m/s 677 mmHg 72%
    09:00 +9°C° 0 mm 3 m/s 678 mmHg 74%
    10:00 +10°C° 0 mm 3 m/s 678 mmHg 69%
    11:00 +10°C° 0 mm 3 m/s 678 mmHg 65%
    12:00 +11°C° 0 mm 4 m/s 678 mmHg 61%
    13:00 +11°C° 0 mm 4 m/s 678 mmHg 64%
    14:00 +10°C° 0 mm 4 m/s 678 mmHg 66%
    15:00 +10°C° 0 mm 4 m/s 677 mmHg 69%
    16:00 +8°C° 0 mm 4 m/s 677 mmHg 72%
    17:00 +7°C° 0 mm 3 m/s 677 mmHg 74%
    18:00 +5°C° 0 mm 3 m/s 677 mmHg 77%
    19:00 +4°C° 0 mm 2 m/s 677 mmHg 82%
    20:00 +3°C° 0 mm 2 m/s 677 mmHg 87%
    21:00 +2°C° 0 mm 1 m/s 677 mmHg 91%
    22:00 +2°C° 0 mm 1 m/s 677 mmHg 87%
    23:00 +2°C° 0 mm 1 m/s 677 mmHg 84%

    28 Aprilie, Duminică

    Timp Temperatura Precipitaţii Vânt Presiune Umiditate
    00:00 +1°C° 0 mm 1 m/s 677 mmHg 80%
    01:00 +1°C° 0 mm 1 m/s 676 mmHg 78%
    02:00 +1°C° 0 mm 1 m/s 676 mmHg 76%
    03:00 +1°C° 0 mm 1 m/s 676 mmHg 74%
    04:00 +1°C° 0 mm 1 m/s 676 mmHg 72%
    05:00 +2°C° 0 mm 1 m/s 676 mmHg 70%
    06:00 +2°C° 0 mm 1 m/s 676 mmHg 69%
    07:00 +4°C° 0 mm 1 m/s 677 mmHg 66%
    08:00 +5°C° 0 mm 2 m/s 677 mmHg 62%
    09:00 +8°C° 0 mm 2 m/s 677 mmHg 59%
    10:00 +9°C° 0 mm 2 m/s 677 mmHg 57%
    11:00 +10°C° 0 mm 2 m/s 677 mmHg 55%
    12:00 +12°C° 0 mm 2 m/s 677 mmHg 52%
    13:00 +12°C° 0 mm 2 m/s 676 mmHg 53%
    14:00 +12°C° 0 mm 2 m/s 676 mmHg 55%
    15:00 +12°C° 0 mm 2 m/s 675 mmHg 56%
    16:00 +10°C° 0 mm 2 m/s 675 mmHg 63%
    17:00 +9°C° 0 mm 1 m/s 675 mmHg 71%
    18:00 +8°C° 0 mm 1 m/s 674 mmHg 78%
    19:00 +7°C° 0 mm 1 m/s 674 mmHg 81%
    20:00 +5°C° 0 mm 1 m/s 674 mmHg 84%
    21:00 +4°C° 0 mm 1 m/s 674 mmHg 87%
    22:00 +4°C° 0 mm 1 m/s 674 mmHg 83%
    23:00 +4°C° 0 mm 1 m/s 674 mmHg 79%

    29 Aprilie, Luni

    Timp Temperatura Precipitaţii Vânt Presiune Umiditate
    00:00 +4°C° 0 mm 1 m/s 674 mmHg 74%
    01:00 +4°C° 0 mm 1 m/s 673 mmHg 72%
    02:00 +4°C° 0 mm 1 m/s 673 mmHg 69%
    03:00 +4°C° 0 mm 1 m/s 672 mmHg 66%
    04:00 +4°C° 0 mm 1 m/s 672 mmHg 64%
    05:00 +5°C° 0 mm 1 m/s 672 mmHg 62%
    06:00 +6°C° 0 mm 1 m/s 672 mmHg 59%
    07:00 +8°C° 0 mm 1 m/s 673 mmHg 54%
    08:00 +11°C° 0 mm 1 m/s 673 mmHg 48%
    09:00 +14°C° 0 mm 1 m/s 673 mmHg 42%
    10:00 +15°C° 0 mm 1 m/s 673 mmHg 42%
    11:00 +16°C° 0 mm 1 m/s 673 mmHg 41%
    12:00 +19°C° 0 mm 1 m/s 672 mmHg 41%
    13:00 +17°C° 0 mm 2 m/s 672 mmHg 43%
    14:00 +17°C° 0 mm 2 m/s 671 mmHg 46%
    15:00 +17°C° 0 mm 2 m/s 671 mmHg 48%
    16:00 +16°C° 0 mm 1 m/s 670 mmHg 57%
    17:00 +14°C° 0 mm 1 m/s 670 mmHg 65%
    18:00 +13°C° 0 mm 1 m/s 669 mmHg 74%
    19:00 +12°C° 0 mm 1 m/s 669 mmHg 76%
    20:00 +9°C° 0 mm 2 m/s 669 mmHg 77%
    21:00 +8°C° 0 mm 2 m/s 669 mmHg 79%
    22:00 +8°C° 0 mm 2 m/s 669 mmHg 80%
    23:00 +8°C° 0 mm 2 m/s 668 mmHg 80%
    Arată mai mult